星链-2431 (STARLINK-2431 )

导读 | 星芒AI

STARLINK-2431 是 SpaceX Starlink 项目中的一颗低轨通信卫星,属于第二代 Starlink 卫星星座的一部分。该卫星旨在为全球用户提供高速互联网服务,尤其关注偏远和网络基础设施薄弱的地区。它搭载了先进通信设备和激光链路,以提升数据传输效率和网络稳定性。STARLINK-2431 于近期成功发射并进入预定轨道,进一步扩展了 Starlink 的全球覆盖能力,为实现全球宽带接入目标做出贡献。

基本信息
目录编号:
47839
目录名称:
STARLINK-2431
国际标识:
2021-018BE
轨道中心:
EARTH
卫星名称:
星链-2431
卫星全名:
星链-2431 (STARLINK-2431 )
卫星状态:
在轨 (已飞行1743 天)
发射日期:
2021-03-11 UTC
国别 :
美国 (US)
星等 :
--
轨道信息
数据来源 国际轨道数据
星历时间: 2025-12-17T07:57:48+0800
1天前
查看轨道信息
半长轴: 6925.352km
偏心率: 0.0001162
轨道倾角: 53.053°
近地点辐角 91.287°
升交点赤经 232.834°
平近点角 268.825°
近地点: 546.412km
远地点: 548.022km
周期: 95.592分钟
每日圈数: 15.063992
详细信息
固有亮度:
5
最大亮度:
2.5
卫星平台:
Starlink V1.0
覆盖范围:
全球
运营商:
太空探索技术公司
运营商所在国:
美国
制造商(研发单位):
太空探索技术公司
制造商所在国:
美国
使用方式:
暂无
卫星简介
星链(Starlink)计划是由太空探索技术公司(SpaceX)提出的一个巨型低轨卫星互联网星座项目,计划在2019年至2024年间在太空搭建由约1.2万颗卫星组成的“星链”网络,其中1584颗将部署在地球上空550千米处的近地轨道,并从2020年开始工作。该卫星仍在工作。
2D轨道图
3D轨道图
轨道高度分析图
轨道倾角分析图
轨道综合分析图
查看轨道综合分析图